EUTELSAT 65 WEST A

Last updated on Mon Sep 07 2026 00:02:59 GMT+0000 (Coordinated Universal Time)

1 41382U 16014A 26249.50758131 -.00000292 00000+0 00000+0 0 9995 2 41382 0.0722 40.6396 0002286 129.2895 293.2026 1.00269358 38349
UTC large
Height (km)
Speed (km/s)
/
Latitude / Longitude
Inclination (degrees)
Orbital Period (minutes)
Azimuth
Elevation
Range (km)
Doppler Factor

Next 0 passes for location: London (51.5072 / 0.1276)

No passes found over London.
EUTELSAT 65 WEST A